ONEWEB-0095, 45436

Orbit data source: Space-Track

ONEWEB-0095, 45436 is a payload satellite owned by One Web (UK) in LEO that was launched on Sat, 21 Mar 2020 UTC via a SOYUZ-2-1B launch vehicle from the Tyuratam Missile And Space Complex (TTMTR). Payload-class satellites include a variety of spacecraft equipped with specific instruments for various scientific and technological missions. These include communications satellites like Starlink; space stations such as the ISS; scientific satellites like the Hubble; Earth observation satellites from companies like Planet Labs, Umbra, and HawkEye 360; GPS; miniature CubeSats for education and research; and military/defense satellites.

Loading next visibility...
Identifier
45436, 2020-020N
Orbit
LEO
Country
Flag of UKUK
Related business
Manufacturer
One Web
Mission
Operational Commercial Communications
Bus & Motor
ARROW, Unknown motor
Mass
148 kg wet, ~140 kg dry
Launch date (UTC)
2020-03-21 (6 years ago)
Launch vehicle
SOYUZ-2-1B
Launch site
Tyuratam Missile And Space Complex (TTMTR)
Object type
Payload
Rocket body
Debris
Shape & HBR
Trap Box + 2 Pan, 6.7 m
Radar Cross Section
3.464 m², Large (>1 m²)

Expand to show TLE details & history
Last TLE update: 12 hours ago

TLE from 12 hours ago
0 ONEWEB-0095
1 45436U 20020N   25296.90829988  .00000301  00000-0  81481-3 0  9992
2 45436  87.8825  68.1190 0001882  74.5344 285.5992 13.11415680271700
Epoch: 2025-10-23T21:47Z
TLE epoch observation values (Epoch: 2025-10-23T21:47:57.109Z)
Latitude
Longitude
68.57024°
Altitude
1,220.192 km
Speed
7.244 km/s
True Right ascension
04h 32m 28s
True Declination
0° 00' 00"
Sunlit
Object was in full shadow at epoch
Visualization orbit readout
Latitude
Unknown
Longitude
Unknown
Altitude
Unknown
Speed
Unknown
Apparent Right ascension
Unknown
Apparent Declination
Unknown
Sunlit
N/A
Visualization observer readout
Local Sidereal Time
05:21:19
Azimuth
Unknown
Elevation
Unknown
Doppler factor
Unknown
Orbital elements
Apogee altitude
1,216.235 km
Perigee altitude
1,213.377 km
Semi-major axis
7,592.943 km
Eccentricity
0.00019
Inclination
87.8825°
RAAN
68.119°
Arg. of periapsis
74.5344°
True anomaly
285.57843°
Mean anomaly
285.5992°
Eccentric anomaly
285.58881°
Mean motion
3.28041 °/min
Orbital period
109.74 mins
BSTAR
0.00081481
Loading maneuver chart data...
Computing Atmospheric mass density...
Loading historical data...
Loading historical data...
Loading historical data...
Loading historical data...
Loading historical data...
Loading historical data...
Loading historical data...

Documentation

Showing up to 5 results
|